Flag for Russia Weather past 2 weeks in Pyatigorsk, Russia

Now
102 °F

Clear.


Feels Like: 98 °F
Forecast: 66 / 101 °F
Wind: 17 mph from Southeast

Location: Mineral'Nye Vody

Current Time: Jul 31, 2015 at 2:51:40 PM

Latest Report: Jul 31, 2015 at 2:00 PM


Visibility: N/A

Pressure: 29.77 "Hg (28.08 "Hg at 533m altitude)

Humidity: 15%

Dew point: 46 °F

Location of PyatigorskLocation

Historic Weather in Pyatigorsk — Graph

°F

Pyatigorsk temperature yesterday

Maximum temperature yesterday: 99 °F (at 3:00 PM)
Minimum temperature yesterday: 64 °F (at 4:00 AM)
Average temperature yesterday: 83 °F

Past Weeks' High & Low Weather Summary

 TemperatureHumidityPressure
High102 °F (Jul 31, 1:00 PM)94% (Jul 17, 5:30 AM)30.09 "Hg (Jul 17, 5:30 AM)
Low50 °F (Jul 20, 4:30 AM)15% (Jul 31, 1:00 PM)29.68 "Hg (Jul 27, 4:30 PM)
Average76 °F51%29.90 "Hg
* Reported Jul 16 2:00 PM — Jul 31 2:00 PM, Pyatigorsk, Weather by CustomWeather, © 2015

Note: Actual official high and low records may vary slightly from our data, if they occured in-between our weather recording intervals... More about our weather records

Advertising

Pyatigorsk weather history for previous 24 hours

 ConditionsComfort  
Time TempWeatherWind HumidityBarometerVisibility
2:00 PM
Fri, Jul 31
102 °FClear.17 mph15%29.77 "HgN/A
1:30 PM100 °FClear.17 mph16%29.77 "HgN/A
1:00 PM102 °FClear.20 mph15%29.77 "HgN/A
12:30 PM100 °FClear.22 mph16%29.80 "HgN/A
12:00 PM100 °FClear.22 mph16%29.80 "HgN/A
11:30 AM99 °FClear.24 mph18%29.80 "HgN/A
11:00 AM100 °FClear.22 mph17%29.80 "HgN/A
10:30 AM97 °FClear.22 mph20%29.83 "HgN/A
10:00 AM97 °FClear.20 mph22%29.83 "HgN/A
9:30 AM95 °FClear.22 mph25%29.83 "HgN/A
9:00 AM91 °FClear.10 mph36%29.83 "HgN/A
8:30 AM88 °FClear.8 mph43%29.83 "HgN/A
8:00 AM81 °FClear.3 mph54%29.83 "HgN/A
7:30 AM79 °FClear.No wind58%29.86 "HgN/A
7:00 AM73 °FClear.3 mph69%29.86 "HgN/A
6:30 AM72 °FClear.No wind73%29.83 "HgN/A
6:00 AM70 °FClear.1 mph78%29.83 "HgN/A
5:30 AM66 °FClear.3 mph88%29.86 "HgN/A
5:00 AM66 °FClear.3 mph83%29.83 "HgN/A
4:30 AM66 °FClear.3 mph83%29.83 "HgN/A
4:00 AM66 °FClear.1 mph83%29.83 "HgN/A
3:30 AM66 °FClear.3 mph88%29.83 "HgN/A
3:00 AM70 °FClear.6 mph78%29.83 "HgN/A
2:30 AM68 °FClear.6 mph83%29.83 "HgN/A
2:00 AM68 °FClear.3 mph78%29.83 "HgN/A
1:30 AM70 °FClear.3 mph78%29.83 "HgN/A
1:00 AM70 °FClear.3 mph73%29.83 "HgN/A
12:30 AM72 °FClear.3 mph69%29.83 "HgN/A
12:00 AM73 °FClear.6 mph65%29.83 "HgN/A
11:30 PM
Thu, Jul 30
72 °FClear.6 mph69%29.83 "HgN/A
11:00 PM73 °FClear.No wind61%29.83 "HgN/A
10:30 PM77 °FClear.1 mph54%29.83 "HgN/A
10:00 PM77 °FClear.1 mph54%29.83 "HgN/A
9:30 PM81 °FClear.1 mph48%29.83 "HgN/A
9:00 PM82 °FClear.1 mph45%29.86 "HgN/A
8:30 PM84 °FClear.3 mph40%29.86 "HgN/A
8:00 PM88 °FClear.3 mph35%29.83 "HgN/A
7:30 PM90 °FClear.3 mph33%29.83 "HgN/A
7:00 PM91 °FClear.6 mph32%29.83 "HgN/A
6:30 PM93 °FClear.6 mph28%29.83 "HgN/A
6:00 PM95 °FClear.10 mph28%29.83 "HgN/A
5:30 PM97 °FClear.10 mph27%29.83 "HgN/A
5:00 PM97 °FClear.8 mph25%29.83 "HgN/A
4:30 PM99 °FClear.10 mph22%29.83 "HgN/A
4:00 PM97 °FClear.10 mph23%29.83 "HgN/A
3:30 PM97 °FClear.10 mph22%29.83 "HgN/A
3:00 PM99 °FClear.8 mph22%29.86 "HgN/A
2:30 PM97 °FClear.10 mph23%29.86 "HgN/A
2:00 PM97 °FClear.8 mph25%29.86 "HgN/A
Weather by CustomWeather, © 2015

See weather overviewHow to use our weather pages